Tracking 19969 objects as of 12-Nov-2019
Live streaming from Space Station
objects crossing your sky now
Track the group of recently launched Starlink satellites

COSMOS 1275 DEB

Track COSMOS 1275 DEB now!
10-day predictions


NORAD ID: 17627
Int'l Code: 1981-053KZ
Perigee: 883.4 km
Apogee: 959.2 km
Inclination: 82.9 °
Period: 103.3 minutes
Semi major axis: 7292 km
RCS: 0.0098 m2 (small)
Launch date: June 4, 1981
Source: Commonwealth of Independent States (former USSR) (CIS)
Launch site: PLESETSK MISSILE AND SPACE COMPLEX (PKMTR)

Note: This is SATELLITE DEBRIS
aabbcc
Your satellite tracking list
Your tracking list is empty




NASA's NSSDC Master Catalog

Two Line Element Set (TLE):
1 17627U 81053KW  19315.70529518  .00000373  00000-0  26625-3 0  9993
2 17627  82.9306  50.2971 0051973 191.3492 168.6507 13.94143077749553
Source of the keplerian elements: AFSPC